DECAYED

OBJECT CN, 62693 (Decayed)

Orbit data source: Space-Track

You're viewing an Uncataloged Satellite

Recently launched and/or uncataloged satellites may have evolving metadata. Metadata may include but not limited to: Owner, Maufacturer, Bus, Motor, and Mission.

OBJECT CN, 62693 was a satellite in SSO that was launched on Tue, 14 Jan 2025 UTC via an FALCON 9 launch vehicle from the Air Force Western Test Range (AFWTR). Unknown objects in Earth's orbit typically refer to objects detected orbiting the Earth but have not yet been identified or cataloged. These objects could be anything from previously untracked satellites, spent rocket stages, debris from satellite collisions, or even natural meteoroids temporarily captured by Earth's gravity. This object's orbit decayed before it could be identified.

Not visible in the next 10 days
Identifier
62693, 2025-009CN
Orbit
Decayed
Country
Flag of TBDTBD
Related business
None
Manufacturer
Unknown
Mission
Decayed Commercial Communications
Bus & Motor
Unknown
Mass
Unknown
Launch date (UTC)
2025-01-14 (1 year ago)
Launch vehicle
FALCON 9
Launch site
Air Force Western Test Range (AFWTR)
Object type
Unknown
Shape & HBR
Box + 2 Pan, 0.1 m
Radar Cross Section
0.014 m², Small (<0.1 m²)

Expand to show TLE details & history
Last TLE update: 2 months ago

TLE from 2 months ago
0 OBJECT CN
1 62693U 25009CN  26125.99287441  .02271390  57702-2  23247-2 0  9999
2 62693  97.3937 219.8957 0014907 270.4030  89.5546 16.12023424130831
Epoch: 2026-05-05T23:49Z
TLE epoch observation values (Epoch: 2026-05-05T23:49:44.349Z)
Latitude
-0.00003°
Longitude
-1.39884°
Altitude
244.451 km
Speed
7.76 km/s
True Right ascension
14h 39m 34s
True Declination
0° 00' 00"
Sunlit
Object was in full shadow at epoch
Visualization orbit readout
Latitude
Unknown
Longitude
Unknown
Altitude
Unknown
Speed
Unknown
Apparent Right ascension
Unknown
Apparent Declination
Unknown
Sunlit
N/A
Visualization observer readout
Local Sidereal Time
07:22:50
Azimuth
Unknown
Elevation
Unknown
Doppler factor
Unknown
Orbital elements
Apogee altitude
248.005 km
Perigee altitude
228.279 km
Semi-major axis
6,616.279 km
Eccentricity
0.00149
Inclination
97.3937°
RAAN
219.8957°
Arg. of periapsis
270.403°
True anomaly
89.72542°
Mean anomaly
89.5546°
Eccentric anomaly
89.64001°
Mean motion
4.03295 °/min
Orbital period
89.26 mins
BSTAR
0.0023247
Loading maneuver chart data...
Computing Atmospheric mass density...
Loading historical data...
Loading historical data...
Loading historical data...
Loading historical data...
Loading historical data...
Loading historical data...
Loading historical data...

Documentation

Showing up to 5 results
|